Rome, GA

7:18 PM EDT on July 24, 2017 (GMT -0400)
Russell

Weather History for KRMG - August, 2013

Change the Weather History Date:

Friday, August 16, 2013

  Actual Average Record
Temperature  
Mean Temperature 68 °F 79 °F  
Max Temperature 71 °F 90 °F 100 °F (2007)
Min Temperature 65 °F 68 °F 7 °F (1996)
Cooling Degree Days 3 14  
Month to date cooling degree days 209 229  
Year to date cooling degree days 1103 1173  
Since 1 June cooling degree days 960 1005  
Growing Degree Days 18 (Base 50)    
Moisture  
Dew Point 62 °F    
Average Humidity 81    
Maximum Humidity 93    
Minimum Humidity 68    
Precipitation  
Precipitation T in 0.14 in 1.09 in (2016)
Month to date precipitation 0.94 2.17  
Year to date precipitation 27.12 33.46  
Sea Level Pressure  
Sea Level Pressure 30.06 in    
Wind  
Wind Speed 3 mph (ENE)    
Max Wind Speed 12 mph    
Max Gust Speed 15 mph    
Visibility 10 miles    
Events Rain    
T = Trace of Precipitation, MM = Missing Value Source: NWS Daily Summary

Daily Weather History Graph

Daily Weather History Graph

Search for Another Location

Airport or City:

Trip Planner

Search our weather history database for the weather conditions in past years. The results will help you decide how hot, cold, wet, or windy it might be!

Date:

Astronomy

Aug. 16, 2013 Rise Set
Actual Time 7:02 AM EDT 8:26 PM EDT
Civil Twilight 6:36 AM EDT 8:52 PM EDT
Nautical Twilight 6:04 AM EDT 9:24 PM EDT
Astronomical Twilight 5:31 AM EDT 9:57 PM EDT
Moon 4:39 PM EDT (8/16) 2:09 AM EDT (8/16)
Length of Visible Light 14h 16m
Length of Day
13h 23m
Waxing Gibbous, 74% of the Moon is Illuminated
Aug 16
Waxing Gibbous
Aug 20
Full
Aug 28
Last Quarter
Sep 5
New
Sep 12
First Quarter

Hourly Weather History & Observations

Time (EDT) Temp. Dew Point Humidity Pressure Visibility Wind Dir Wind Speed Gust Speed Precip Events Conditions
1:53 AM 66.9 °F 61.0 °F 81% 30.04 in 10.0 mi ENE 4.6 mph - N/A   Overcast
2:53 AM 68.0 °F 62.1 °F 81% 30.03 in 10.0 mi NE 4.6 mph - N/A   Overcast
3:53 AM 66.9 °F 62.1 °F 84% 30.02 in 10.0 mi East 3.5 mph - N/A   Overcast
4:53 AM 66.9 °F 62.1 °F 84% 30.03 in 10.0 mi ENE 4.6 mph - N/A   Overcast
5:53 AM 66.0 °F 62.1 °F 87% 30.03 in 10.0 mi NNE 4.6 mph - 0.00 in   Overcast
6:53 AM 64.9 °F 63.0 °F 93% 30.04 in 10.0 mi Calm Calm - 0.00 in   Overcast
7:53 AM 66.0 °F 62.1 °F 87% 30.06 in 10.0 mi Calm Calm - N/A   Overcast
8:53 AM 64.9 °F 63.0 °F 93% 30.06 in 5.0 mi Calm Calm - 0.00 in Rain Light Rain
9:53 AM 66.9 °F 63.0 °F 87% 30.07 in 10.0 mi NE 5.8 mph - 0.00 in   Overcast
10:01 AM 66.2 °F 62.6 °F 88% 30.10 in 10.0 mi NNE 4.6 mph - N/A   Overcast
10:39 AM 68.0 °F 62.6 °F 83% 30.10 in 10.0 mi ENE 3.5 mph - N/A   Overcast
10:53 AM 68.0 °F 61.0 °F 78% 30.09 in 10.0 mi ENE 5.8 mph - N/A   Overcast
11:25 AM 68.0 °F 60.8 °F 78% 30.11 in 10.0 mi East 5.8 mph - N/A   Overcast
11:53 AM 69.1 °F 60.1 °F 73% 30.09 in 10.0 mi East 6.9 mph - N/A   Overcast
12:53 PM 69.1 °F 61.0 °F 75% 30.09 in 10.0 mi East 5.8 mph - N/A   Overcast
1:53 PM 70.0 °F 61.0 °F 73% 30.08 in 10.0 mi ESE 5.8 mph - N/A   Overcast
2:53 PM 71.1 °F 61.0 °F 70% 30.07 in 10.0 mi East 6.9 mph - N/A   Overcast
3:53 PM 71.1 °F 62.1 °F 73% 30.04 in 10.0 mi East 6.9 mph - N/A   Overcast
4:53 PM 71.1 °F 62.1 °F 73% 30.04 in 10.0 mi East 5.8 mph - N/A   Overcast
5:53 PM 71.1 °F 62.1 °F 73% 30.05 in 10.0 mi East 5.8 mph - N/A   Overcast
6:29 PM 71.6 °F 62.6 °F 73% 30.07 in 10.0 mi ENE 3.5 mph - N/A   Overcast
6:53 PM 71.1 °F 62.1 °F 73% 30.05 in 10.0 mi East 3.5 mph - N/A   Overcast
7:53 PM 70.0 °F 62.1 °F 76% 30.06 in 10.0 mi Calm Calm - N/A   Overcast
8:53 PM 69.1 °F 63.0 °F 81% 30.08 in 10.0 mi Calm Calm - N/A   Overcast
9:53 PM 68.0 °F 64.0 °F 87% 30.09 in 10.0 mi Calm Calm - N/A   Overcast
10:53 PM 69.1 °F 64.0 °F 84% 30.09 in 10.0 mi Calm Calm - N/A   Overcast
11:53 PM 68.0 °F 64.0 °F 87% 30.08 in 10.0 mi Calm Calm - N/A   Overcast